OBJECT B

Satellite information

Favourite Embed

Satellite Type and Status

UNKNOWNIN ORBIT

Key statistics

Satellite OBJECT B at a glance.

Uptime

1284

Days in orbit

Revolutions

≈ 15.2

Per day

Orbit

LEO

Low Earth Orbit

Inclination

63.5

Latest

Satellite identification and parameters

Extended collection of information and parameters for OBJECT B.

Object identification

Identified? True

Debris? False

Object name: OBJECT B

International designator: 2022-023B

Object number (NORAD): 51947

Object ID (CCSDS): 51947

Country: PEOPLES REPUBLIC OF CHINA (PRC)

Current information (Y/N): Y

RCS size: LARGE

Orbital parameters

Period: 94.814 minutes

Inclination: 63.4643 deg

SMA: 6887.733 km

Apoapsis: 574.093 km

Periapsis: 445.102 km

RAAN: 146.1537 deg

Eccentricy: 0.00936382

Argument of periapsis: 344.979 deg

Mean anomaly: 14.8545 deg

Mean motion: 15.18757084 rev/day

Mean motion (dot): 0.00025963 rev/day2

B* drag term: 0.001112639 1/REarth

Two-line elements (TLE)

Creation date: Sept. 8, 2025, 6:18 p.m.

Reference frame: TEME

Reference center: EARTH

Epoch: Sept. 8, 2025, 3:27 p.m. UTC

TLE line 0: 0 OBJECT B

TLE line 1: 1 51947U 22023B 25251.64401904 .00025963 00000-0 11126-2 0 9996

TLE line 2: 2 51947 63.4643 146.1537 0093638 344.9790 14.8545 15.18757084194979

Live tracking on map

Real-time ground track for satellite OBJECT B.

In-orbit conjunctions

There are no conjunctions computed for OBJECT B, at the moment. Check back to stay up to date, as we update our databases every day.

Go to all conjunctions

Associated space launch

The first flight dedicated to the launch of the Internet constellation of GalaxySpace, a private company, planning the total deployment of more than 1000 satellites in earth orbit. The satellites broadcast in 5G, with a capacity of 10 Gb.

OBJECT B was lifted into orbit during the mission ‘Long March 2C | Yinhe-1 (x6)’, on board a Long March 2 space rocket.

The launch took place on March 5, 2022, 6:01 a.m. from Launch Complex 3 (LC-3/LA-1).

For more information about the launch, click the button.

Launch to space Long March 2C | Yinhe-1 (x6)
Long March 2C | Yinhe-1 (x6)

Agency: N/A

Status: Launch Successful

Launch date: March 5, 2022, 6:01 a.m. UTC

Rocket: Long March 2

Launch pad: Launch Complex 3 (LC-3/LA-1)

Location: Xichang Satellite Launch Center, People's Republic of China

...

Latest news about this satellite

News about space launch
Long March rocket deploys six Chinese internet satellites

Six demonstration satellites for a future Chinese broadband internet mega-constellation launched March 5 on a Long March 2C rocket.

News about space launch
China launches test satellites for broadband constellation

China  launched a set of commercial satellites Saturday for testing broadband services, on-orbit networking and integrating communications and remote sensing technologies.


Newsletter sign-up

Weekly statistics, charts and insights to help you stay on top of the space industry.